This is the latest recevied weather packets stored in our database for station/object WC4PEM-9. If no packets are shown the sender has not sent any weather packets the latest 1 day(s).
| Time | Temp. | Humidity | Pressure | Rain* | Wind** | Luminosity | Snow |
|---|---|---|---|---|---|---|---|
| 1778011811 | 30° C | 50% | 1013.9 hPa | 0 mm | 0.89 m/s, 76° | - | - |
| 1778011707 | 30° C | 50% | 1013.9 hPa | 0 mm | 0.89 m/s, 76° | - | - |
| 1778011407 | 30° C | 48% | 1013.8 hPa | 0 mm | 1.34 m/s, 111° | - | - |
| 1778011107 | 30.56° C | 48% | 1013.7 hPa | 0 mm | 1.79 m/s, 93° | - | - |
| 1778010807 | 30.56° C | 48% | 1013.9 hPa | 0 mm | 1.79 m/s, 106° | - | - |
| 1778010507 | 30.56° C | 50% | 1014 hPa | 0 mm | 1.79 m/s, 133° | - | - |
| 1778010207 | 30.56° C | 48% | 1014.1 hPa | 0 mm | 1.79 m/s, 102° | - | - |
| 1778009907 | 30.56° C | 50% | 1014.2 hPa | 0 mm | 2.24 m/s, 128° | - | - |
| 1778009700 | 30.56° C | 44% | 1014.3 hPa | 0 mm | 1.34 m/s, 19° | - | - |
| 1778009607 | 30.56° C | 44% | 1014.3 hPa | 0 mm | 1.34 m/s, 19° | - | - |
| 1778009307 | 30° C | 46% | 1014.4 hPa | 0 mm | 0.89 m/s, 341° | - | - |
| 1778009007 | 29.44° C | 46% | 1014.5 hPa | 0 mm | 0.89 m/s, 46° | - | - |
| 1778008794 | 28.89° C | 46% | 1014.5 hPa | 0 mm | 1.34 m/s, 83° | - | - |
| 1778008707 | 28.89° C | 46% | 1014.5 hPa | 0 mm | 1.34 m/s, 83° | - | - |
| 1778008407 | 28.89° C | 49% | 1014.7 hPa | 0 mm | 2.24 m/s, 153° | - | - |
| 1778008201 | 30° C | 47% | 1014.7 hPa | 0 mm | 2.24 m/s, 165° | - | - |
| 1778008107 | 30° C | 47% | 1014.7 hPa | 0 mm | 2.24 m/s, 165° | - | - |
| 1778007902 | 30° C | 51% | 1014.6 hPa | 0 mm | 1.79 m/s, 183° | - | - |
| 1778007807 | 30° C | 51% | 1014.6 hPa | 0 mm | 1.79 m/s, 183° | - | - |
| 1778007507 | 30° C | 51% | 1014.7 hPa | 0 mm | 1.79 m/s, 163° | - | - |
| 1778007207 | 29.44° C | 54% | 1014.7 hPa | 0 mm | 2.24 m/s, 48° | - | - |
| 1778006607 | 29.44° C | 51% | 1014.9 hPa | 0 mm | 1.79 m/s, 93° | - | - |
| 1778006429 | 28.89° C | 48% | 1014.6 hPa | 0 mm | 1.79 m/s, 309° | - | - |
| 1778006307 | 28.89° C | 48% | 1014.6 hPa | 0 mm | 1.79 m/s, 309° | - | - |
| 1778006007 | 28.89° C | 50% | 1014.7 hPa | 0 mm | 1.79 m/s, 100° | - | - |
* Rain latest hour (hover to see other rain measurements)
** Current wind speed in m/s (hover to see current wind gust speed)